Location: Schommer Observatory
(40.5200°N, 74.4500°W)
Time: 05:26:22
(UTC-04:00)

Tiangong 1 - Pass Details

Date: 14 October 2017
Orbit: 292 x 319 km, 42.8° (Epoch: 23 October)

Event Time Altitude Azimuth Distance (km) Brightness Sun altitude
Rises 20:04:51 0° 282° (WNW) 2,039 6.3 -20.9°
Reaches altitude 10° 20:06:57 10° 272° (W) 1,202 4.7 -21.3°
Enters shadow 20:08:36 25° 242° (WSW) 672 2.8 -21.6°
